FW4179 Weather Reports


Display with metric or nautical units.
time (UTC)temp
F
wind
direction
speed
MPH
gust
MPH
rain 1hr
in
rain 24hr
in
rain mn
in
humidity
%
barometer
mb
20260903130100 76 170 1.0 5.0 0.00 0.00 0.00 90 1019.6
20260903124605 75 0 0.0 2.0 0.00 0.00 0.00 92 1019.6
20260903123055 73 0 0.0 0.0 0.00 0.00 0.00 95 1019.6
20260903121555 73 0 0.0 0.0 0.00 0.00 0.00 96 1019.6
20260903120106 72 0 0.0 0.0 0.00 0.00 0.00 96 1019.3
20260903114602 72 0 0.0 0.0 0.00 0.00 0.00 96 1019.2
20260903113058 72 0 0.0 0.0 0.00 0.00 0.00 95 1019.2
20260903111558 72 0 0.0 0.0 0.00 0.00 0.00 95 1019.1
20260903110056 72 0 0.0 0.0 0.00 0.00 0.00 95 1019.0
20260903104605 72 0 0.0 0.0 0.00 0.00 0.00 95 1018.7
20260903103103 73 0 0.0 0.0 0.00 0.00 0.00 94 1018.6
20260903101608 73 0 0.0 0.0 0.00 0.00 0.00 94 1018.5
20260903100056 73 0 0.0 0.0 0.00 0.00 0.00 95 1018.6
20260903094605 73 0 0.0 0.0 0.00 0.00 0.00 95 1018.6
20260903093110 73 0 0.0 0.0 0.00 0.00 0.00 94 1018.6
20260903091557 74 0 0.0 0.0 0.00 0.00 0.00 94 1018.8
20260903090059 74 0 0.0 1.0 0.00 0.00 0.00 94 1018.6
20260903084601 74 0 0.0 0.0 0.00 0.00 0.00 94 1018.6
20260903083053 74 0 0.0 0.0 0.00 0.00 0.00 94 1018.6
20260903081557 74 0 0.0 0.0 0.00 0.00 0.00 94 1018.6
20260903080049 75 0 0.0 0.0 0.00 0.00 0.00 94 1018.6
20260903074556 75 0 0.0 0.0 0.00 0.00 0.00 93 1018.5
20260903073056 74 0 0.0 1.0 0.00 0.00 0.00 95 1018.5
20260903071553 74 0 0.0 0.0 0.00 0.00 0.00 94 1018.5
20260903070109 74 0 0.0 0.0 0.00 0.00 0.00 94 1018.4
20260903064557 75 0 0.0 0.0 0.00 0.00 0.00 93 1018.4
20260903063124 75 0 0.0 0.0 0.00 0.00 0.00 93 1018.5
20260903061554 76 0 0.0 0.0 0.00 0.00 0.00 93 1018.5
20260903060117 76 0 0.0 0.0 0.00 0.00 0.00 92 1018.4
20260903054600 76 0 0.0 0.0 0.00 0.00 0.00 92 1018.5
20260903053056 77 0 0.0 0.0 0.00 0.00 0.00 90 1018.4
20260903051559 77 0 0.0 0.0 0.00 0.00 0.00 89 1018.5
20260903050129 78 0 0.0 0.0 0.00 0.00 0.00 87 1018.5
20260903044559 79 0 0.0 0.0 0.00 0.00 0.00 86 1018.6
20260903043058 79 0 0.0 0.0 0.00 0.00 0.00 86 1018.4
20260903041559 79 0 0.0 0.0 0.00 0.00 0.00 86 1018.6
20260903040101 80 0 0.0 0.0 0.00 0.00 0.00 85 1018.6
20260903034600 80 0 0.0 0.0 0.00 0.00 0.00 83 1018.6
20260903033057 81 0 0.0 2.0 0.00 0.00 0.00 82 1018.6
20260903031559 82 0 1.0 2.0 0.00 0.00 0.00 81 1018.6
20260903030058 81 0 0.0 0.0 0.00 0.00 0.00 82 1018.7
20260903024602 81 0 0.0 0.0 0.00 0.00 0.00 82 1018.6
20260903023058 81 0 0.0 0.0 0.00 0.00 0.00 82 1018.6
20260903021559 82 0 0.0 0.0 0.00 0.00 0.00 80 1018.9
20260903020054 83 0 0.0 0.0 0.00 0.00 0.00 79 1018.6
20260903014555 84 0 0.0 0.0 0.00 0.00 0.00 77 1018.5
20260903013057 84 0 0.0 0.0 0.00 0.00 0.00 75 1018.4
20260903011606 86 0 0.0 0.0 0.00 0.00 0.00 71 1018.3
20260903010056 87 0 0.0 0.0 0.00 0.00 0.00 68 1018.2
20260903004636 88 0 0.0 0.0 0.00 0.00 0.00 68 1018.1
20260903003058 89 0 0.0 0.0 0.00 0.00 0.00 66 1018.2
20260903001555 90 0 0.0 0.0 0.00 0.00 0.00 63 1018.2
20260903000101 93 0 0.0 2.0 0.00 0.00 0.00 60 1018.1
20260902234554 96 0 0.0 0.0 0.00 0.00 0.00 53 1018.1
20260902233100 97 0 0.0 0.0 0.00 0.00 0.00 52 1018.0
20260902231605 98 0 0.0 0.0 0.00 0.00 0.00 49 1018.1
20260902230059 97 0 0.0 0.0 0.00 0.00 0.00 48 1018.1
20260902224600 98 0 0.0 1.0 0.00 0.00 0.00 48 1018.2
20260902223101 99 0 0.0 3.0 0.00 0.00 0.00 47 1018.1
20260902221600 98 0 0.0 0.0 0.00 0.00 0.00 47 1018.3
20260902220053 98 0 0.0 2.0 0.00 0.00 0.00 50 1018.3
20260902214601 97 360 0.0 4.0 0.00 0.00 0.00 49 1018.2
20260902213059 97 0 1.0 3.0 0.00 0.00 0.00 49 1018.3
20260902211555 98 344 0.0 4.0 0.00 0.00 0.00 50 1018.3
20260902210056 96 0 0.0 4.0 0.00 0.00 0.00 54 1018.4
20260902204555 95 282 0.0 7.0 0.00 0.00 0.00 55 1018.5
20260902203057 94 298 0.0 4.0 0.00 0.00 0.00 56 1018.6
20260902201556 96 284 1.0 7.0 0.00 0.00 0.00 51 1018.9
20260902200110 96 0 1.0 5.0 0.00 0.00 0.00 50 1018.9
20260902194604 95 241 2.0 7.0 0.00 0.00 0.00 50 1019.2
20260902193057 96 98 0.0 4.0 0.00 0.00 0.00 51 1019.3
20260902191556 95 171 0.0 9.0 0.00 0.00 0.00 50 1019.5
20260902190050 95 273 2.0 8.0 0.00 0.00 0.00 51 1019.7
20260902184601 94 0 0.0 4.0 0.00 0.00 0.00 53 1019.9
20260902183059 95 83 0.0 7.0 0.00 0.00 0.00 54 1019.9
20260902181601 94 263 2.0 6.0 0.00 0.00 0.00 57 1020.0
20260902180122 94 270 2.0 6.0 0.00 0.00 0.00 53 1020.2
20260902174557 94 0 0.0 6.0 0.00 0.00 0.00 58 1020.3
20260902173057 93 0 0.0 3.0 0.00 0.00 0.00 60 1020.5
20260902171602 93 0 1.0 4.0 0.00 0.00 0.00 57 1020.7
20260902170057 92 305 1.0 5.0 0.00 0.00 0.00 58 1021.0
20260902164553 92 0 0.0 5.0 0.00 0.00 0.00 59 1021.3
20260902163104 91 275 1.0 6.0 0.00 0.00 0.00 64 1021.4
20260902161601 90 252 2.0 6.0 0.00 0.00 0.00 62 1021.5
20260902160058 89 0 0.0 4.0 0.00 0.00 0.00 65 1021.7
20260902154550 88 0 0.0 4.0 0.00 0.00 0.00 71 1021.6
20260902153058 88 0 1.0 3.0 0.00 0.00 0.00 69 1021.7
20260902151551 88 200 0.0 2.0 0.00 0.00 0.00 73 1021.8
20260902150058 87 0 1.0 4.0 0.00 0.00 0.00 76 1021.8
20260902144558 86 0 0.0 2.0 0.00 0.00 0.00 76 1021.6
20260902143056 84 0 0.0 0.0 0.00 0.00 0.00 79 1021.6
20260902141555 82 0 0.0 0.0 0.00 0.00 0.00 83 1021.5
20260902140056 80 0 0.0 0.0 0.00 0.00 0.00 84 1021.4
20260902134555 79 0 0.0 3.0 0.00 0.00 0.00 86 1021.4
20260902133056 78 142 0.0 0.0 0.00 0.00 0.00 89 1021.4
20260902131551 77 0 0.0 0.0 0.00 0.00 0.00 91 1021.5